User: anonymous   Login
Location: Unspecified
(0.0000°N, 0.0000°E)
Time: 21:51:04
(UTC+00:00)
Language:

STARLINK-30351 - Orbit

View from above orbital plane
View from above orbital plane
View from above satellite
View from above satellite

Ground track
Ground track

The orbit is defined by the following mean orbital elements,

1 57738U          26145.35299716 +.00000000 +00000-0 -59155-4 0 00003
2 57738  43.0011  99.2887 0001326 262.7685  97.3016 15.27588765    02
Epoch (UTC): 25 May 2026 08:28:18
Eccentricity: 0.0001326
inclination: 43.0011°
perigee height: 482 km
apogee height: 484 km
right ascension of ascending node: 99.2887°
argument of perigee: 262.7685°
revolutions per day: 15.27588765
mean anomaly at epoch: 97.3016°

The dashed part of the orbit path shows where the satellite is in the earth's shadow,  

DLR